Broome, Australia

2:30 PM AWST on April 23, 2017 (GMT +0800)
Broome International

Weather History for YBRM - December, 2012

Change the Weather History Date:

Sunday, December 23, 2012

  Actual Average Record
Temperature  
Mean Temperature 88 °F -  
Max Temperature 95 °F 92 °F - ()
Min Temperature 81 °F 79 °F - ()
Cooling Degree Days 23    
Growing Degree Days 38 (Base 50)    
Moisture  
Dew Point 77 °F    
Average Humidity 66    
Maximum Humidity 84    
Minimum Humidity 43    
Precipitation  
Precipitation 0.00 in 0.22 in - ()
Sea Level Pressure  
Sea Level Pressure 29.68 in    
Wind  
Wind Speed 7 mph ()    
Max Wind Speed 16 mph    
Max Gust Speed -    
Visibility 7.5 miles    
Events Thunderstorm    
T = Trace of Precipitation, MM = Missing Value Source: Averaged Metar Reports

Daily Weather History Graph

Daily Weather History Graph

Search for Another Location

Airport or City:

Trip Planner

Search our weather history database for the weather conditions in past years. The results will help you decide how hot, cold, wet, or windy it might be!

Date:

Astronomy

Dec. 23, 2012 Rise Set
Actual Time 5:13 AM AWST 6:26 PM AWST
Civil Twilight 4:49 AM AWST 6:50 PM AWST
Nautical Twilight 4:21 AM AWST 7:19 PM AWST
Astronomical Twilight 3:51 AM AWST 7:48 PM AWST
Moon 2:15 PM AWST 1:12 AM AWST
Length of Visible Light 14h 00m
Length of Day
13h 12m
Waxing Gibbous, 77% of the Moon is Illuminated
Dec 23
Waxing Gibbous
Dec 28
Full
Jan 5
Last Quarter
Jan 12
New
Jan 19
First Quarter

Hourly Weather History & Observations

Time (AWST) Temp. Heat Index Dew Point Humidity Pressure Visibility Wind Dir Wind Speed Gust Speed Precip Events Conditions
12:00 AM 85 °F - 78 °F 76% 29.69 in - West 5.8 mph - -  
12:00 AM 86.0 °F 99.3 °F 78.8 °F 79% 29.68 in 6.2 mi West 5.8 mph - N/A   Unknown
12:30 AM 86.0 °F 99.3 °F 78.8 °F 79% 29.68 in 6.2 mi West 8.1 mph - N/A   Scattered Clouds
1:00 AM 86.0 °F 99.3 °F 78.8 °F 79% 29.65 in 6.2 mi WSW 5.8 mph - N/A   Scattered Clouds
1:30 AM 86.0 °F 99.3 °F 78.8 °F 79% 29.65 in 6.2 mi West 5.8 mph - N/A   Scattered Clouds
2:00 AM 85 °F - 79 °F 77% 29.67 in - West 4.6 mph - -  
2:00 AM 86.0 °F 99.3 °F 78.8 °F 79% 29.65 in 6.2 mi West 4.6 mph - N/A   Scattered Clouds
2:30 AM 84.2 °F 96.1 °F 78.8 °F 84% 29.65 in 6.2 mi West 4.6 mph - N/A   Scattered Clouds
3:00 AM 85 °F - 79 °F 76% 29.67 in - West 3.5 mph - -  
3:00 AM 84.2 °F 96.1 °F 78.8 °F 84% 29.65 in 6.2 mi West 3.5 mph - N/A   Scattered Clouds
3:30 AM 84.2 °F 96.1 °F 78.8 °F 84% 29.65 in 6.2 mi WNW 1.2 mph - N/A   Scattered Clouds
4:00 AM 86.0 °F 99.3 °F 78.8 °F 79% 29.65 in 6.2 mi West 4.6 mph - N/A   Scattered Clouds
4:30 AM 86.0 °F 99.3 °F 78.8 °F 79% 29.68 in 6.2 mi WSW 5.8 mph - N/A   Scattered Clouds
5:00 AM 85 °F - 78 °F 75% 29.70 in - WSW 4.6 mph - -  
5:00 AM 86.0 °F 99.3 °F 78.8 °F 79% 29.68 in 6.2 mi WSW 4.6 mph - N/A   Scattered Clouds
5:30 AM 86.0 °F 99.3 °F 78.8 °F 79% 29.71 in 6.2 mi WSW 4.6 mph - N/A   Partly Cloudy
6:00 AM 87 °F - 77 °F 65% 29.72 in 19 mi SW 4.6 mph - -   Haze
6:00 AM 86.0 °F 96.9 °F 77.0 °F 74% 29.71 in 6.2 mi SW 4.6 mph - N/A   Partly Cloudy
6:30 AM 87.8 °F 102.5 °F 78.8 °F 75% 29.71 in 6.2 mi WSW 6.9 mph - N/A   Partly Cloudy
7:00 AM 89.6 °F 102.2 °F 77.0 °F 66% 29.71 in 6.2 mi WSW 8.1 mph - N/A   Partly Cloudy
7:30 AM 89.6 °F 102.2 °F 77.0 °F 66% 29.74 in 6.2 mi SSW 8.1 mph - N/A   Partly Cloudy
8:00 AM 91 °F - 78 °F 58% 29.74 in - West 8.1 mph - -  
8:00 AM 91.4 °F 107.2 °F 78.8 °F 66% 29.74 in 6.2 mi West 8.1 mph - N/A   Partly Cloudy
8:30 AM 89.6 °F 104.7 °F 78.8 °F 70% 29.74 in 6.2 mi West 9.2 mph - N/A   Partly Cloudy
9:00 AM 91 °F - 79 °F 60% 29.74 in 22 mi West 10.4 mph - -   Partly Cloudy
9:00 AM 91.4 °F 107.2 °F 78.8 °F 66% 29.74 in 6.2 mi West 10.4 mph - N/A   Partly Cloudy
9:30 AM 93.2 °F 110.2 °F 78.8 °F 63% 29.74 in 6.2 mi West 9.2 mph - N/A   Partly Cloudy
10:00 AM 93.2 °F 110.2 °F 78.8 °F 63% 29.71 in 6.2 mi West 10.4 mph - N/A   Partly Cloudy
10:30 AM 93.2 °F 110.2 °F 78.8 °F 63% 29.71 in 6.2 mi West 10.4 mph - N/A   Partly Cloudy
11:00 AM 92 °F - 78 °F 56% 29.72 in - West 10.4 mph - -  
11:00 AM 91.4 °F 107.2 °F 78.8 °F 66% 29.71 in 6.2 mi West 10.4 mph - N/A   Partly Cloudy
11:30 AM 93.2 °F 107.2 °F 77.0 °F 59% 29.71 in 6.2 mi West 10.4 mph - N/A   Partly Cloudy
12:00 PM 93 °F - 78 °F 54% 29.70 in 19 mi West 10.4 mph - -   Haze
12:00 PM 93.2 °F 110.2 °F 78.8 °F 63% 29.68 in 6.2 mi West 10.4 mph - N/A   Partly Cloudy
12:30 PM 93.2 °F 110.2 °F 78.8 °F 63% 29.68 in 6.2 mi West 10.4 mph - N/A   Partly Cloudy
1:00 PM 93.2 °F 107.2 °F 77.0 °F 59% 29.65 in 6.2 mi WNW 10.4 mph - N/A   Partly Cloudy
1:30 PM 95.0 °F 109.7 °F 77.0 °F 56% 29.65 in 6.2 mi West 12.7 mph - N/A   Partly Cloudy
2:00 PM 94 °F - 74 °F 43% 29.65 in - West 12.7 mph - -  
2:00 PM 95.0 °F 104.5 °F 73.4 °F 49% 29.65 in 6.2 mi West 12.7 mph - N/A   Partly Cloudy
2:30 PM 95.0 °F 104.5 °F 73.4 °F 49% 29.62 in 6.2 mi WNW 13.8 mph - N/A   Partly Cloudy
3:00 PM 93 °F - 74 °F 45% 29.62 in 19 mi West 16.1 mph - - Thunderstorm Thunderstorm
3:00 PM 93.2 °F 102.4 °F 73.4 °F 52% 29.62 in 6.2 mi West 16.1 mph - N/A   Partly Cloudy
3:30 PM 93.2 °F 105.0 °F 75.2 °F 56% 29.62 in 6.2 mi West 15.0 mph - N/A   Partly Cloudy
4:00 PM 93.2 °F 102.4 °F 73.4 °F 52% 29.65 in 6.2 mi West 8.1 mph - N/A Thunderstorm Mostly Cloudy
4:30 PM 95.0 °F 104.5 °F 73.4 °F 49% 29.65 in 6.2 mi SSW 6.9 mph - N/A Thunderstorm Partly Cloudy
5:00 PM 90 °F - 75 °F 54% 29.62 in - WSW 13.8 mph - -  
5:00 PM 89.6 °F 99.8 °F 75.2 °F 62% 29.59 in 6.2 mi WSW 13.8 mph - N/A   Mostly Cloudy
5:30 PM 89.6 °F 102.2 °F 77.0 °F 66% 29.62 in 6.2 mi West 10.4 mph - N/A   Mostly Cloudy
6:00 PM 90 °F - 75 °F 54% 29.64 in 19 mi WNW 11.5 mph - -   Partly Cloudy
6:00 PM 89.6 °F 99.8 °F 75.2 °F 62% 29.62 in 6.2 mi WNW 11.5 mph - N/A   Mostly Cloudy
6:30 PM 89.6 °F 99.8 °F 75.2 °F 62% 29.65 in 6.2 mi WNW 9.2 mph - N/A   Unknown
7:00 PM 89.6 °F 98.2 °F 73.4 °F 59% 29.68 in 6.2 mi West 8.1 mph - N/A   Mostly Cloudy
7:30 PM 89.6 °F 98.2 °F 73.4 °F 59% 29.68 in - WNW 8.1 mph - N/A   Clear
8:00 PM 89 °F - 75 °F 55% 29.73 in - WNW 8.1 mph - -  
8:00 PM 89.6 °F 99.8 °F 75.2 °F 62% 29.71 in - WNW 8.1 mph - N/A   Clear
8:30 PM 89.6 °F 99.8 °F 75.2 °F 62% 29.74 in - West 8.1 mph - N/A   Clear
9:00 PM 88 °F - 76 °F 61% 29.73 in 19 mi West 8.1 mph - -   Partly Cloudy
9:00 PM 87.8 °F 99.7 °F 77.0 °F 70% 29.71 in - West 8.1 mph - N/A   Clear
9:30 PM 87.8 °F 99.7 °F 77.0 °F 70% 29.71 in 6.2 mi WNW 8.1 mph - N/A   Unknown
10:00 PM 87.8 °F 99.7 °F 77.0 °F 70% 29.74 in 6.2 mi NW 6.9 mph - N/A   Unknown
10:30 PM 87.8 °F 99.7 °F 77.0 °F 70% 29.74 in 6.2 mi WNW 8.1 mph - N/A   Unknown
11:00 PM 87 °F - 76 °F 63% 29.72 in - West 10.4 mph - -  
11:00 PM 87.8 °F 99.7 °F 77.0 °F 70% 29.71 in 6.2 mi West 10.4 mph - N/A   Unknown
11:30 PM 87.8 °F 99.7 °F 77.0 °F 70% 29.71 in 6.2 mi West 10.4 mph - N/A   Unknown